Location: Newark
(49.8348°N, 24.0280°E)
Time: 12:53:49
(UTC+00:00)

Vanguard 3 - Visible Passes

Search period start: 28 January 2020 00:00
Search period end: 07 February 2020 00:00
Orbit: 507 x 3264 km, 33.4° (Epoch: 28 January)

Date Brightness Start Highest point End Pass type
(mag) Time Alt. Az. Time Alt. Az. Time Alt. Az.
28 Jan 10.5 16:40:32 10° WSW 16:58:35 45° S 17:11:38 15° ESE visible
28 Jan 10.1 18:56:00 10° W 19:12:23 38° SSW 19:16:12 34° S visible
28 Jan 10.9 21:14:39 10° W 21:20:46 17° WSW 21:20:46 17° WSW visible
29 Jan 10.8 15:25:06 10° SW 15:42:32 43° SSE 15:58:32 10° ESE visible
29 Jan 10.3 17:39:09 10° WSW 17:56:59 44° S 18:06:27 24° SE visible
29 Jan 10.4 19:55:53 10° W 20:09:50 28° SW 20:11:01 28° SSW visible
30 Jan 10.6 16:23:02 10° WSW 16:41:03 46° S 16:56:37 10° ESE visible
30 Jan 10.3 18:38:21 10° W 18:55:01 37° SSW 19:01:18 28° SSE visible
30 Jan 10.9 20:57:19 10° W 21:05:52 17° SW 21:05:52 17° SW visible
31 Jan 10.6 17:21:38 10° WSW 17:39:29 44° SSW 17:51:38 17° SE visible
31 Jan 10.5 19:38:21 10° W 19:52:28 27° SW 19:56:13 25° SSW visible
01 Feb 10.7 16:05:41 10° WSW 16:23:28 46° S 16:39:47 10° ESE visible
01 Feb 10.5 18:20:50 10° W 18:37:32 36° SSW 18:46:36 22° SSE visible
01 Feb 10.9 20:40:10 10° W 20:49:17 16° SW 20:51:11 16° SW visible
02 Feb 10.7 17:04:15 10° WSW 17:21:54 43° SSW 17:37:02 11° SE visible
02 Feb 10.7 19:20:55 10° W 19:34:59 26° SW 19:41:38 20° S visible
03 Feb 10.8 15:48:30 10° WSW 16:05:50 46° S 16:22:48 10° ESE visible
03 Feb 10.8 18:03:27 10° W 18:19:58 35° SSW 18:32:09 15° SSE visible
03 Feb 11.0 20:23:16 10° WSW 20:31:49 15° SW 20:36:45 13° SSW visible
04 Feb 10.8 16:47:03 10° WSW 17:04:17 42° SSW 17:20:15 10° SE visible
04 Feb 10.9 19:03:39 10° W 19:17:26 25° SW 19:27:21 14° S visible
05 Feb 10.9 15:31:30 10° WSW 15:48:12 46° S 16:05:38 10° ESE visible
05 Feb 11.0 17:46:14 10° W 18:02:20 33° SSW 18:16:44 10° SSE visible
05 Feb 11.2 20:06:46 10° WSW 20:14:17 14° SW 20:21:06 10° SSW visible
06 Feb 11.0 16:30:00 10° W 16:46:38 40° SSW 17:03:02 10° SE visible
06 Feb 11.1 18:46:36 10° W 18:59:49 23° SW 19:11:37 10° S visible
